Regional Weather Roundup
Issued by NWS

Home | Current Version | Previous Version | Graphics & Text | Print | Product List | Glossary On
Versions: 1 2 3 4 5 6 7 8 9 10 11 12 13 14 15 16 17 18 19 20 21 22 23 24 25 26 27 28 29 30 31 32 33 34 35 36 37 38 39 40 41 42 43 44 45 46 47 48 49 50
000
ASUS43 KIND 311909
RWRIN

WEATHER ROUNDUP FOR INDIANA
NATIONAL WEATHER SERVICE INDIANAPOLIS IN
200 PM EST SAT JAN 31 2015

NOTE: "FAIR" INDICATES FEW OR NO CLOUDS BELOW 12,000 FEET WITH NO
SIGNIFICANT WEATHER AND/OR OBSTRUCTIONS TO VISIBILITY.

* - STATION DOES NOT REPORT WEATHER SUCH AS PRECIPITATION OR FOG.

+ - STATION NOT QUALITY CONTROLLED BY THE NATIONAL WEATHER SERVICE.
    USE DATA WITH CAUTION...ESPECIALLY DEWPOINT AND RELATIVE
    HUMIDITY OBSERVATIONS.

INZ001>003-010>013-019-020-312000-
NORTHWEST INDIANA

CITY           SKY/WX    TMP DP  RH WIND       PRES   REMARKS
GARY /AIRPORT/ CLOUDY    37  21  52 SW10      30.18
KNOX *+        CLOUDY    36  10  35 SW12      30.20S
LA PORTE +     PTSUNNY   38  26  63 SW15      30.19F
MICHIGAN CITY+ PTSUNNY   37  19  48 SW12      30.18F
MONTICELLO +   CLOUDY    36  26  67 SW13      30.23F
RENSSELAER +   CLOUDY    36  32  87 SW12      30.21F
VALPARAISO     CLOUDY    36  25  64 SW12      30.19F

$$

LMZ046-743>745-312000-
SOUTHERN LAKE MICHIGAN

STATION/POSITION TIME  TEMP WIND        PRES
                       AIR  DIR/SP/G
                 (UTC) (F)  (DEG/KT/KT) (MB)
MICHIGAN CITY    1900   36  200/ 14/ 17   N/A

$$

INZ004-005-014>016-021>024-312000-
NORTH CENTRAL INDIANA

CITY           SKY/WX    TMP DP  RH WIND       PRES   REMARKS
ELKHART        MOSUNNY   37  19  48 SW10      30.19F
GOSHEN         MOSUNNY   36  24  62 SW14      30.19F
LOGANSPORT +   PTSUNNY   34  27  75 SW10      30.24F WCI  26
PERU/GRISSOM   PTSUNNY   36  26  66 SW15      30.22F
ROCHESTER +    PTSUNNY   37  28  70 SW9       30.21F
SOUTH BEND     MOSUNNY   37  23  56 SW10      30.19F
WARSAW +       MOSUNNY   36  23  60 W14       30.20F

$$

INZ006>009-017-018-025>027-312000-
NORTHEAST INDIANA

CITY           SKY/WX    TMP DP  RH WIND       PRES   REMARKS
ANGOLA *+      SUNNY     36  23  60 SW12      30.18F
AUBURN +       SUNNY     36  23  60 SW9       30.20F
FORT WAYNE     PTSUNNY   35  25  66 SW12      30.22F WCI  27
HUNTINGTON +   MOSUNNY   35  19  53 SW12G17   30.22F WCI  27

$$

INZ028-029-035-036-043>045-051>053-312000-
WEST CENTRAL INDIANA

CITY           SKY/WX    TMP DP  RH WIND       PRES   REMARKS
CRAWFORDSVL +  CLOUDY    35  19  51 SW15      30.26S WCI  25
GREENCASTLE +  CLOUDY    36  21  55 SW6       30.27F
LAFAYETTE      CLOUDY    36  24  62 SW13      30.25F
TERRE HAUTE    CLOUDY    39  24  55 SW9       30.29F

$$

INZ030>032-037>040-046>048-054>057-064-065-312000-
CENTRAL INDIANA

CITY           SKY/WX    TMP DP  RH WIND       PRES   REMARKS
ANDERSON       SUNNY     37  21  52 SW10      30.26F
CP ATTERBURY + CLOUDY    37  21  52 SW10G16   30.30F
COLUMBUS       PTSUNNY   37  18  44 SW12      30.30F
FRANKFORT +    CLOUDY    37  26  64 S14       30.26F
GREENWOOD *+   CLOUDY    37  19  48 W12       30.28F
INDIANAPOLIS   CLOUDY    35  21  56 SW14      30.27F WCI  26
-EAGLE CREEK   CLOUDY    36  22  56 SW9G17    30.26F
KOKOMO *+      PTSUNNY   37  27  65 SW14      30.24F
MARION +       CLOUDY    36  24  63 SW14      30.24F
MT COMFORT *+  CLOUDY    37  14  38 SW13      30.27F
SHELBYVILLE    CLOUDY    38  22  52 SW13      30.28F
ZIONSVILLE +   CLOUDY    38  22  52 SW16      30.26F

$$

INZ033-034-041-042-049-050-058-059-312000-
EAST CENTRAL INDIANA

CITY           SKY/WX    TMP DP  RH WIND       PRES   REMARKS
MUNCIE         PTSUNNY   36  23  59 SW10      30.24F

$$

INZ060-061-067>069-081>083-085>088-312000-
SOUTHWEST INDIANA

CITY           SKY/WX    TMP DP  RH WIND       PRES   REMARKS
EVANSVILLE     CLOUDY    42  23  46 S6        30.34F
HUNTINGBURG *+ CLOUDY    37  25  60 S3        30.34F
WASHINGTON +   CLOUDY    38  21  51 S8        30.31F

$$

INZ062-063-066-070>080-084-089>092-312000-
SOUTH CENTRAL AND SOUTHEAST INDIANA

CITY           SKY/WX    TMP DP  RH WIND       PRES   REMARKS
BLOOMINGTON    CLOUDY    39  23  52 W9        30.29F
NORTH VERNON + CLOUDY    37  23  56 SW10      30.31F
SEYMOUR +      CLOUDY    41  23  48 S9        30.31F

$$




USA.gov is the U.S. government's official web portal to all federal, state and local government web resources and services.